This is the latest recevied weather packets stored in our database for station/object OE-11152. If no packets are shown the sender has not sent any weather packets the latest 10 day(s).
| Time | Temp. | Humidity | Pressure | Rain* | Wind** | Luminosity | Snow |
|---|---|---|---|---|---|---|---|
| 1787651717 | 18.33° C | 70% | 1012 hPa | 0 mm | - | 330 W/m² | - |
| 1787650891 | 18.33° C | 70% | 1012 hPa | 0 mm | - | 330 W/m² | - |
| 1787650518 | 17.78° C | 69% | 1011.8 hPa | 0 mm | - | 351 W/m² | - |
| 1787649918 | 17.78° C | 70% | 1011.8 hPa | 0 mm | - | 357 W/m² | - |
| 1787649091 | 17.78° C | 69% | 1011.8 hPa | 0 mm | - | 337 W/m² | - |
| 1787648718 | 17.78° C | 68% | 1011.6 hPa | 0 mm | - | 364 W/m² | - |
| 1787648118 | 17.78° C | 69% | 1011.4 hPa | 0 mm | - | 364 W/m² | - |
| 1787647290 | 17.22° C | 71% | 1011.3 hPa | 0 mm | - | 216 W/m² | - |
| 1787646918 | 16.67° C | 72% | 1011.3 hPa | 0 mm | - | 182 W/m² | - |
| 1787646318 | 16.67° C | 72% | 1011.1 hPa | 0 mm | - | 148 W/m² | - |
| 1787645490 | 16.67° C | 74% | 1011 hPa | 0 mm | - | 148 W/m² | - |
| 1787645118 | 16.67° C | 74% | 1010.9 hPa | 0 mm | - | 135 W/m² | - |
| 1787644518 | 16.11° C | 70% | 1010.3 hPa | 0 mm | - | 108 W/m² | - |
| 1787643691 | 16.11° C | 70% | 1009.8 hPa | 0 mm | - | 101 W/m² | - |
| 1787643318 | 16.11° C | 71% | 1009.4 hPa | 0 mm | - | 101 W/m² | - |
| 1787642718 | 16.11° C | 72% | 1009.3 hPa | 0 mm | - | 108 W/m² | - |
| 1787641891 | 16.11° C | 71% | 1009.2 hPa | 0 mm | - | 115 W/m² | - |
| 1787641517 | 16.11° C | 71% | 1009.1 hPa | 0 mm | - | 128 W/m² | - |
| 1787640917 | 16.11° C | 71% | 1008.9 hPa | 0 mm | - | 135 W/m² | - |
| 1787640091 | 16.11° C | 71% | 1008.9 hPa | 0 mm | - | 128 W/m² | - |
| 1787639717 | 16.67° C | 72% | 1008.8 hPa | 0 mm | - | 108 W/m² | - |
| 1787639118 | 16.67° C | 71% | 1008.7 hPa | 0 mm | - | 81 W/m² | - |
| 1787638290 | 16.11° C | 70% | 1008.8 hPa | 0 mm | - | 74 W/m² | - |
| 1787637918 | 16.11° C | 71% | 1008.8 hPa | 0 mm | - | 81 W/m² | - |
| 1787637318 | 16.11° C | 71% | 1008.8 hPa | 0 mm | - | 67 W/m² | - |
* Rain latest hour (hover to see other rain measurements)
** Current wind speed in m/s (hover to see current wind gust speed)